Location: Unspecified
(0.0000°N, 0.0000°E)
Time: 15:10:03
(UTC+00:00)

N. Korean satellite - Pass Details

Date: 16 April 2021
Orbit: 452 x 499 km, 97.2° (Epoch: 15 April)

Event Time Altitude Azimuth Distance (km) Brightness Sun altitude
Rises 04:32:41 0° 28° (NNE) 2,504 10.7 -21.4°
Reaches altitude 10° 04:34:55 10° 39° (NE) 1,622 9.9 -20.9°
Maximum altitude 04:37:58 29° 101° (E) 885 8.5 -20.1°
Drops below altitude 10° 04:40:59 10° 162° (SSE) 1,608 9.3 -19.4°
Sets 04:43:11 0° 174° (S) 2,478 10.1 -18.8°
